Simultaneous Nadir Overpasses (SNOs) Predictions

Prediction of SNOs between GOES-16 and AQUA Satellite Orbit:

Table of predicted SNOs for the next 14.0 days since TLE Epoch: 9/19/2025
Index Date Time (GOES-16) GOES-16 Lat,Lon AQUA Lat,Lon Distance(km) Time Diff (sec)
1 09/20/2025 09:36:29 -0.09,-104.67 -0.84,-101.11 405.49 80
2 09/20/2025 21:55:42 0.08,-104.67 -0.15,-105.75 122.91 80
3 09/22/2025 21:37:43 0.08,-104.68 0.97,-100.70 454.12 80
4 09/23/2025 09:56:45 -0.08,-104.69 0.06,-105.29 68.28 80
5 09/25/2025 21:52:38 0.08,-104.69 0.06,-104.88 20.30 80
6 09/28/2025 09:51:00 -0.07,-104.71 -0.12,-104.40 34.93 80
7 09/28/2025 22:10:12 0.06,-104.70 -0.90,-109.04 494.48 80
8 09/30/2025 21:52:11 0.07,-104.70 0.21,-103.98 82.60 80
9 10/01/2025 10:11:14 -0.06,-104.73 0.79,-108.58 438.67 80
10 10/03/2025 09:47:53 -0.08,-104.73 -0.36,-103.52 138.36 80
